FW8143 Weather Reports


time (UTC)temp
F
wind
direction
speed
knots
gust
knots
rain 1hr
in
rain 24hr
in
rain mn
in
humidity
%
barometer
mb
20260505160737 50 286 6.1 13.0 0.00 0.00 0.00 48 1019.2
20260505160231 50 265 4.3 12.2 0.00 0.00 0.00 48 1019.2
20260505152646 49 260 2.6 7.8 0.00 0.00 0.00 49 1019.2
20260505152141 49 355 3.5 7.8 0.00 0.00 0.00 48 1019.2
20260505151635 49 227 3.5 7.8 0.00 0.00 0.00 49 1019.2
20260505151128 49 277 3.5 7.8 0.00 0.00 0.00 49 1019.2
20260505150623 49 250 4.3 10.4 0.00 0.00 0.00 49 1019.4
20260505150117 50 192 6.1 12.2 0.00 0.00 0.00 48 1019.4
20260505140511 50 17 5.2 11.3 0.00 0.00 0.00 50 1019.2
20260505124619 47 239 3.5 7.8 0.00 0.00 0.00 46 1019.5
20260505124111 47 281 3.5 7.0 0.00 0.00 0.00 46 1019.5
20260505123353 47 322 3.5 7.0 0.00 0.00 0.00 45 1019.4
20260505122853 47 17 2.6 7.0 0.00 0.00 0.00 45 1019.4
20260505122354 47 344 2.6 7.8 0.00 0.00 0.00 44 1019.4
20260505122115 47 267 4.3 10.4 0.00 0.00 0.00 44 1019.1
20260505121614 47 246 4.3 10.4 0.00 0.00 0.00 44 1019.1
20260505120851 47 317 4.3 10.4 0.00 0.00 0.00 44 1019.1
20260505120557 46 320 3.5 7.8 0.00 0.00 0.00 45 1018.9
20260505120438 46 286 4.3 10.4 0.00 0.00 0.00 44 1019.0
20260505115351 46 322 2.6 7.8 0.00 0.00 0.00 45 1018.9
20260505114851 47 304 1.7 7.0 0.00 0.00 0.00 44 1019.0
20260505114349 47 294 0.9 4.3 0.00 0.00 0.00 44 1019.1
20260505114105 47 293 0.9 5.2 0.00 0.00 0.00 44 1019.2
20260505113345 47 311 0.9 6.1 0.00 0.00 0.00 43 1019.2
20260505112845 47 279 0.9 6.1 0.00 0.00 0.00 43 1019.2
20260505112604 47 300 0.9 3.5 0.00 0.00 0.00 43 1019.2
20260505111835 47 311 0.9 2.6 0.00 0.00 0.00 43 1019.2
20260505111328 48 296 0.9 2.6 0.00 0.00 0.00 42 1019.1
20260505110822 48 355 0.9 2.6 0.00 0.00 0.00 42 1019.0
20260505110315 48 300 0.9 2.6 0.00 0.00 0.00 42 1019.0
20260505102032 49 317 1.7 4.3 0.00 0.00 0.00 40 1019.0
20260505101306 49 303 2.6 7.0 0.00 0.00 0.00 40 1019.0
20260505100806 49 293 2.6 7.8 0.00 0.00 0.00 40 1018.9
20260505100304 49 298 1.7 7.8 0.00 0.00 0.00 40 1019.0
20260505095805 50 322 1.7 7.0 0.00 0.00 0.00 41 1018.9
20260505095301 50 0 1.7 7.0 0.00 0.00 0.00 41 1018.9
20260505094800 50 302 1.7 6.1 0.00 0.00 0.00 40 1019.0
20260505094522 50 302 0.9 6.1 0.00 0.00 0.00 40 1019.0
20260505093800 50 301 0.9 3.5 0.00 0.00 0.00 40 1019.0
20260505093301 50 297 2.6 7.8 0.00 0.00 0.00 39 1019.0
20260505093024 50 254 3.5 7.8 0.00 0.00 0.00 39 1019.0
20260505092301 50 320 2.6 6.1 0.00 0.00 0.00 39 1018.9
20260505091800 51 309 2.6 11.3 0.00 0.00 0.00 38 1018.9
20260505091303 51 208 3.5 11.3 0.00 0.00 0.00 37 1018.9
20260505090801 51 271 2.6 7.0 0.00 0.00 0.00 37 1019.0
20260505090301 51 284 2.6 7.0 0.00 0.00 0.00 36 1019.0
20260505085801 51 323 2.6 7.0 0.00 0.00 0.00 36 1019.1
20260505085301 51 355 1.7 7.0 0.00 0.00 0.00 36 1019.2
20260505084800 51 308 0.9 3.5 0.00 0.00 0.00 36 1019.2
20260505084300 51 311 0.9 3.5 0.00 0.00 0.00 36 1019.2
20260505083801 52 332 0.9 3.5 0.00 0.00 0.00 35 1019.4
20260505083259 52 355 0.9 2.6 0.00 0.00 0.00 36 1019.5
20260505082758 52 278 0.0 2.6 0.00 0.00 0.00 35 1019.8
20260505082256 52 291 0.9 4.3 0.00 0.00 0.00 35 1020.0
20260505081749 52 289 2.6 7.0 0.00 0.00 0.00 35 1020.0
20260505081243 52 292 3.5 7.0 0.00 0.00 0.00 34 1020.1
20260505081003 52 292 4.3 8.7 0.00 0.00 0.00 34 1020.0
20260505080231 52 320 4.3 8.7 0.00 0.00 0.00 34 1019.9
20260505075726 53 339 4.3 8.7 0.00 0.00 0.00 34 1019.8
20260505075703 53 321 5.2 9.6 0.00 0.00 0.00 34 1019.9
20260505074714 53 304 5.2 11.3 0.00 0.00 0.00 34 1020.0
20260505074208 53 283 4.3 11.3 0.00 0.00 0.00 33 1020.0
20260505073702 53 286 4.3 11.3 0.00 0.00 0.00 33 1019.8
20260505073156 53 319 5.2 13.0 0.00 0.00 0.00 33 1019.6
20260505072649 53 284 5.2 13.0 0.00 0.00 0.00 33 1019.6
20260505072144 53 309 4.3 11.3 0.00 0.00 0.00 33 1019.5
20260505071638 54 355 3.5 7.8 0.00 0.00 0.00 33 1019.4
20260505071132 54 344 4.3 13.0 0.00 0.00 0.00 33 1019.4
20260505070625 54 293 4.3 13.0 0.00 0.00 0.00 33 1019.5
20260505070120 54 340 3.5 10.4 0.00 0.00 0.00 33 1019.6
20260505065614 54 310 2.6 10.4 0.00 0.00 0.00 33 1019.9
20260505065108 55 312 2.6 10.4 0.00 0.00 0.00 33 1019.6
20260505064602 55 276 2.6 7.8 0.00 0.00 0.00 33 1019.8
20260505064056 55 309 2.6 7.8 0.00 0.00 0.00 33 1019.5
20260505063550 55 280 3.5 8.7 0.00 0.00 0.00 33 1019.5
20260505063043 55 258 3.5 9.6 0.00 0.00 0.00 33 1019.6
20260505062537 55 252 3.5 9.6 0.00 0.00 0.00 33 1019.6
20260505062031 55 266 3.5 9.6 0.00 0.00 0.00 33 1019.6
20260505061530 55 217 4.3 9.6 0.00 0.00 0.00 33 1019.6
20260505061030 55 239 5.2 10.4 0.00 0.00 0.00 33 1019.5
20260505060531 55 228 6.1 10.4 0.00 0.00 0.00 33 1019.6
20260505060031 55 277 5.2 12.2 0.00 0.00 0.00 33 1019.8
20260505055528 55 270 5.2 12.2 0.00 0.00 0.00 33 1019.9
20260505055250 55 300 3.5 11.3 0.00 0.00 0.00 33 1019.8
20260505054848 55 265 3.5 11.3 0.00 0.00 0.00 33 1019.6
20260505054747 55 261 3.5 11.3 0.00 0.00 0.00 33 1019.6
20260505053529 55 268 1.7 7.8 0.00 0.00 0.00 33 1019.5
20260505053029 55 253 0.9 2.6 0.00 0.00 0.00 33 1019.5
20260505052530 56 291 0.9 4.3 0.00 0.00 0.00 34 1019.5
20260505052024 56 269 0.9 4.3 0.00 0.00 0.00 34 1019.5
20260505051524 56 284 0.9 3.5 0.00 0.00 0.00 33 1019.4
20260505051025 56 36 1.7 3.5 0.00 0.00 0.00 33 1019.4
20260505050524 56 332 1.7 4.3 0.00 0.00 0.00 33 1019.5
20260505050247 56 346 1.7 4.3 0.00 0.00 0.00 32 1019.6
20260505041522 57 323 4.3 8.7 0.00 0.00 0.00 31 1019.6
20260505041022 57 302 3.5 8.7 0.00 0.00 0.00 30 1019.6
20260505040523 57 300 3.5 8.7 0.00 0.00 0.00 30 1019.6
20260505040023 57 323 4.3 8.7 0.00 0.00 0.00 29 1019.8
20260505035522 57 15 4.3 9.6 0.00 0.00 0.00 29 1019.8
20260505035023 57 333 4.3 9.6 0.00 0.00 0.00 29 1019.8
20260505034523 57 315 3.5 9.6 0.00 0.00 0.00 28 1019.8
20260505034022 57 355 3.5 10.4 0.00 0.00 0.00 28 1019.6
20260505033520 57 315 3.5 10.4 0.00 0.00 0.00 27 1019.6
20260505033021 57 331 4.3 10.4 0.00 0.00 0.00 27 1019.5
20260505032518 58 303 5.2 12.2 0.00 0.00 0.00 27 1019.5
20260505032019 58 320 5.2 12.2 0.00 0.00 0.00 27 1019.4
20260505031740 58 317 4.3 9.6 0.00 0.00 0.00 26 1019.2
20260505031505 58 300 4.3 9.6 0.00 0.00 0.00 26 1019.1
20260505030519 58 310 5.2 9.6 0.00 0.00 0.00 25 1019.1
20260505030018 58 310 5.2 13.0 0.00 0.00 0.00 25 1019.0
20260505025519 58 315 5.2 15.6 0.00 0.00 0.00 24 1019.0
20260505025018 59 315 5.2 15.6 0.00 0.00 0.00 24 1019.0
20260505024518 59 313 5.2 11.3 0.00 0.00 0.00 24 1018.9
20260505024020 59 309 5.2 12.2 0.00 0.00 0.00 24 1018.7
20260505023517 59 293 5.2 12.2 0.00 0.00 0.00 24 1018.9
20260505023017 59 325 4.3 9.6 0.00 0.00 0.00 23 1018.7
20260505022512 59 281 5.2 11.3 0.00 0.00 0.00 23 1018.7
20260505022005 60 271 5.2 11.3 0.00 0.00 0.00 23 1018.7
20260505021723 60 338 6.1 15.6 0.00 0.00 0.00 22 1018.7
20260505020953 60 289 6.1 15.6 0.00 0.00 0.00 22 1018.7
20260505020447 60 315 7.0 19.1 0.00 0.00 0.00 22 1018.6
20260505015942 60 296 7.8 19.1 0.00 0.00 0.00 22 1018.7
20260505015436 60 336 6.1 13.9 0.00 0.00 0.00 21 1018.6
20260505014929 60 312 5.2 13.9 0.00 0.00 0.00 21 1018.6
20260505014423 61 273 7.8 13.9 0.00 0.00 0.00 21 1018.5
20260505013917 61 269 7.8 14.8 0.00 0.00 0.00 21 1018.4
20260505013411 61 261 7.8 14.8 0.00 0.00 0.00 21 1018.2
20260505013129 61 247 7.8 14.8 0.00 0.00 0.00 20 1018.2
20260505012359 61 263 7.0 15.6 0.00 0.00 0.00 20 1018.1
20260505011853 61 293 7.0 15.6 0.00 0.00 0.00 20 1018.2
20260505011347 62 256 6.1 13.9 0.00 0.00 0.00 20 1018.1
20260505010841 62 254 7.0 20.0 0.00 0.00 0.00 20 1018.2
20260505010335 62 285 8.7 20.0 0.00 0.00 0.00 20 1018.1
20260505005829 62 285 10.4 19.1 0.00 0.00 0.00 20 1018.2
20260505005323 62 208 9.6 19.1 0.00 0.00 0.00 20 1018.4
20260505004818 62 254 7.8 20.0 0.00 0.00 0.00 19 1018.4
20260505004311 62 294 8.7 20.0 0.00 0.00 0.00 19 1018.4
20260505004029 62 238 7.8 17.4 0.00 0.00 0.00 20 1018.5
20260505003754 62 293 7.0 17.4 0.00 0.00 0.00 20 1018.5
20260505002753 62 283 7.0 13.9 0.00 0.00 0.00 20 1018.5
20260505002248 63 235 7.8 13.9 0.00 0.00 0.00 20 1018.5
20260505001742 63 309 8.7 17.4 0.00 0.00 0.00 19 1018.4
20260505001236 63 275 7.8 20.9 0.00 0.00 0.00 20 1018.5
20260505000729 63 265 6.1 20.9 0.00 0.00 0.00 20 1018.6
20260505000448 63 265 6.1 13.9 0.00 0.00 0.00 21 1018.6
20260504235717 63 186 7.8 17.4 0.00 0.00 0.00 20 1018.6
20260504235211 63 344 9.6 20.0 0.00 0.00 0.00 20 1018.7
20260504234705 64 256 7.8 20.0 0.00 0.00 0.00 20 1018.7
20260504234428 64 321 6.1 14.8 0.00 0.00 0.00 21 1018.7
20260504233653 64 266 7.8 18.2 0.00 0.00 0.00 21 1018.7
20260504233147 64 255 8.7 20.0 0.00 0.00 0.00 21 1018.6
20260504232641 64 262 7.0 20.0 0.00 0.00 0.00 21 1018.7
20260504232353 64 256 7.8 15.6 0.00 0.00 0.00 21 1018.6
20260504231629 64 250 7.0 13.9 0.00 0.00 0.00 21 1018.6
20260504231123 64 238 5.2 12.2 0.00 0.00 0.00 21 1018.6
20260504230842 64 355 7.0 14.8 0.00 0.00 0.00 21 1018.9
20260504230111 64 254 10.4 20.9 0.00 0.00 0.00 21 1019.1
20260504230047 64 325 11.3 24.3 0.00 0.00 0.00 21 1019.1
20260504225059 64 243 9.6 24.3 0.00 0.00 0.00 21 1019.1
20260504224553 64 313 7.8 20.0 0.00 0.00 0.00 21 1019.1
20260504224048 63 328 6.1 20.0 0.00 0.00 0.00 21 1019.0
20260504223541 63 243 7.8 20.0 0.00 0.00 0.00 20 1019.1
20260504223035 63 84 9.6 20.0 0.00 0.00 0.00 20 1019.1
20260504222530 63 238 9.6 16.5 0.00 0.00 0.00 20 1019.2
20260504222023 64 324 9.6 18.2 0.00 0.00 0.00 19 1019.4
20260504221517 64 306 7.8 18.2 0.00 0.00 0.00 19 1019.2
20260504221237 64 263 8.7 20.9 0.00 0.00 0.00 19 1019.4
20260504220506 64 299 9.6 20.9 0.00 0.00 0.00 17 1019.4
20260504220221 64 344 8.7 21.7 0.00 0.00 0.00 17 1019.5
20260504215453 65 200 10.4 21.7 0.00 0.00 0.00 17 1019.5
20260504214947 65 250 10.4 20.0 0.00 0.00 0.00 17 1019.5
20260504214441 65 317 8.7 20.0 0.00 0.00 0.00 17 1019.5
20260504213935 66 315 7.8 20.0 0.00 0.00 0.00 16 1019.5
20260504213430 66 307 8.7 18.2 0.00 0.00 0.00 15 1019.6
20260504212923 66 320 7.8 16.5 0.00 0.00 0.00 15 1019.8
20260504212419 66 229 7.8 16.5 0.00 0.00 0.00 17 1019.8
20260504211920 65 261 8.7 16.5 0.00 0.00 0.00 17 1019.9
20260504211421 65 278 9.6 20.0 0.00 0.00 0.00 16 1019.9
20260504210919 65 234 11.3 20.0 0.00 0.00 0.00 17 1020.0
20260504210644 65 227 8.7 20.0 0.00 0.00 0.00 17 1020.0
20260504205922 65 268 8.7 21.7 0.00 0.00 0.00 19 1020.3
20260504205420 65 250 8.7 21.7 0.00 0.00 0.00 19 1020.4
20260504204920 66 239 7.8 16.5 0.00 0.00 0.00 19 1020.4
20260504204644 66 286 8.7 16.5 0.00 0.00 0.00 20 1020.5
20260504203920 65 209 9.6 20.0 0.00 0.00 0.00 21 1020.6
20260504203421 65 281 10.4 20.0 0.00 0.00 0.00 20 1020.5
20260504202920 65 269 9.6 19.1 0.00 0.00 0.00 20 1020.6
20260504202420 65 229 9.6 19.1 0.00 0.00 0.00 20 1020.6
20260504201919 66 290 8.7 17.4 0.00 0.00 0.00 20 1020.6
20260504201636 65 269 9.6 20.9 0.00 0.00 0.00 21 1020.6
20260504201402 65 221 8.7 20.9 0.00 0.00 0.00 21 1020.6
20260504200639 66 225 9.6 20.0 0.00 0.00 0.00 21 1020.8
20260504195914 65 225 10.4 21.7 0.00 0.00 0.00 22 1020.8
20260504195415 65 226 10.4 21.7 0.00 0.00 0.00 21 1020.6
20260504194914 65 240 10.4 21.7 0.00 0.00 0.00 21 1020.9
20260504194413 66 236 9.6 21.7 0.00 0.00 0.00 22 1021.0
20260504193914 65 225 9.6 17.4 0.00 0.00 0.00 22 1021.0
20260504193415 65 247 9.6 20.0 0.00 0.00 0.00 22 1021.1
20260504193143 66 260 8.7 20.0 0.00 0.00 0.00 22 1021.1
20260504192414 66 281 8.7 20.9 0.00 0.00 0.00 22 1021.0
20260504192357 66 231 7.8 20.9 0.00 0.00 0.00 22 1021.1
20260504191413 65 238 8.7 18.2 0.00 0.00 0.00 23 1020.9
20260504190914 65 270 9.6 20.9 0.00 0.00 0.00 23 1021.3
20260504190413 65 259 8.7 20.9 0.00 0.00 0.00 24 1021.0
20260504185914 65 227 8.7 15.6 0.00 0.00 0.00 24 1021.3
20260504185414 64 272 7.8 17.4 0.00 0.00 0.00 24 1021.3
20260504184914 64 258 8.7 18.2 0.00 0.00 0.00 26 1021.1
20260504184637 64 235 9.6 18.2 0.00 0.00 0.00 25 1021.4
20260504183913 64 246 9.6 16.5 0.00 0.00 0.00 25 1021.4
20260504183414 64 255 9.6 18.2 0.00 0.00 0.00 24 1021.4
20260504182913 64 196 8.7 18.2 0.00 0.00 0.00 25 1021.4
20260504182413 64 219 8.7 19.1 0.00 0.00 0.00 25 1021.5
20260504181914 64 262 9.6 20.0 0.00 0.00 0.00 25 1021.6
20260504181414 64 198 7.8 20.0 0.00 0.00 0.00 25 1021.6
20260504180914 64 229 6.1 15.6 0.00 0.00 0.00 27 1021.5
20260504180412 63 254 7.8 17.4 0.00 0.00 0.00 29 1021.8
20260504175913 63 288 7.0 17.4 0.00 0.00 0.00 29 1022.0
20260504175404 63 233 6.1 13.0 0.00 0.00 0.00 29 1022.0
20260504174904 62 227 7.8 18.2 0.00 0.00 0.00 29 1022.1
20260504174351 62 245 7.8 21.7 0.00 0.00 0.00 30 1022.1
20260504173852 62 295 6.1 21.7 0.00 0.00 0.00 33 1022.1
20260504173613 62 231 3.5 12.2 0.00 0.00 0.00 36 1022.3
20260504172852 61 250 3.5 10.4 0.00 0.00 0.00 37 1022.1
20260504172349 61 266 4.3 10.4 0.00 0.00 0.00 38 1022.1
20260504171850 61 242 5.2 13.0 0.00 0.00 0.00 38 1022.3
20260504171350 61 113 5.2 13.0 0.00 0.00 0.00 38 1022.3
20260504170850 61 308 6.1 15.6 0.00 0.00 0.00 38 1022.3
20260504170349 60 247 6.1 15.6 0.00 0.00 0.00 38 1022.3